This is the latest recevied weather packets stored in our database for station/object EA5CEE. If no packets are shown the sender has not sent any weather packets the latest 10 day(s).
| Time | Temp. | Humidity | Pressure | Rain* | Wind** | Luminosity | Snow |
|---|---|---|---|---|---|---|---|
| 1777809625 | 18.89° C | 77% | 1013 hPa | 0 mm | - | - | - |
| 1777808709 | 18.89° C | 74% | 1013.2 hPa | 0 mm | - | - | - |
| 1777807810 | 19.44° C | 74% | 1013.5 hPa | 0 mm | - | - | - |
| 1777806906 | 18.89° C | 78% | 1013.6 hPa | 0 mm | - | - | - |
| 1777806006 | 18.89° C | 78% | 1013.7 hPa | 0 mm | - | - | - |
| 1777805104 | 19.44° C | 77% | 1013.7 hPa | 0 mm | - | - | - |
| 1777804260 | 18.89° C | 81% | 1014 hPa | 0 mm | - | - | - |
| 1777803356 | 18.33° C | 89% | 1014.2 hPa | 0 mm | - | - | - |
| 1777802456 | 17.78° C | 91% | 1014.3 hPa | 0 mm | - | - | - |
| 1777801557 | 17.78° C | 92% | 1014.5 hPa | 0 mm | - | - | - |
| 1777800654 | 17.78° C | 91% | 1014.6 hPa | 0 mm | - | - | - |
| 1777799772 | 17.78° C | 91% | 1014.5 hPa | 0 mm | - | - | - |
| 1777798851 | 17.78° C | 91% | 1014.8 hPa | 0 mm | - | - | - |
| 1777797965 | 17.78° C | 91% | 1014.7 hPa | 0 mm | - | - | - |
| 1777797049 | 17.78° C | 92% | 1014.6 hPa | 0 mm | - | - | - |
| 1777796149 | 17.78° C | 91% | 1014.7 hPa | 0 mm | - | - | - |
| 1777795248 | 17.78° C | 91% | 1014.5 hPa | 0 mm | - | - | - |
| 1777794347 | 17.78° C | 92% | 1014.6 hPa | 0 mm | - | - | - |
| 1777793445 | 17.22° C | 92% | 1014.6 hPa | 0 mm | - | - | - |
| 1777792547 | 17.22° C | 92% | 1014.5 hPa | 0 mm | - | - | - |
| 1777791644 | 17.22° C | 91% | 1014 hPa | 0 mm | - | - | - |
| 1777790743 | 17.22° C | 90% | 1014.5 hPa | 0 mm | - | - | - |
| 1777789842 | 17.22° C | 90% | 1014.7 hPa | 0 mm | - | - | - |
| 1777788942 | 17.22° C | 90% | 1014.8 hPa | 0 mm | - | - | - |
| 1777788041 | 17.22° C | 91% | 1014.2 hPa | 0 mm | - | - | - |
* Rain latest hour (hover to see other rain measurements)
** Current wind speed in m/s (hover to see current wind gust speed)